Time,TemperatureF,DewpointF,PressureIn,WindDirection,WindDirectionDegrees,WindSpeedMPH,WindSpeedGustMPH,Humidity,HourlyPrecipIn,Conditions,Clouds,dailyrainin,SoftwareType,DateUTC
2013-07-19 00:11:00,74.0,73.0,30.09,SSE,166,0.0,-999.0,97,-99.99,,,0.60,weatherlink.com 1.10,2013-07-19 04:11:00,
2013-07-19 00:26:00,73.9,73.0,30.09,SSE,164,0.0,-999.0,97,-99.99,,,0.60,weatherlink.com 1.10,2013-07-19 04:26:00,
2013-07-19 00:41:00,73.9,73.0,30.09,SSW,194,0.0,-999.0,97,-99.99,,,0.61,weatherlink.com 1.10,2013-07-19 04:41:00,
2013-07-19 00:56:00,73.9,73.0,30.09,SW,219,1.0,-999.0,97,-99.99,,,0.61,weatherlink.com 1.10,2013-07-19 04:56:00,
2013-07-19 01:11:00,74.0,73.0,30.09,WNW,303,0.0,-999.0,97,-99.99,,,0.61,weatherlink.com 1.10,2013-07-19 05:11:00,
2013-07-19 01:26:00,74.1,73.0,30.09,NNW,331,0.0,-999.0,97,-99.99,,,0.00,weatherlink.com 1.10,2013-07-19 05:26:00,
2013-07-19 01:41:00,74.1,73.0,30.09,NNW,331,0.0,-999.0,97,-99.99,,,0.00,weatherlink.com 1.10,2013-07-19 05:41:00,
2013-07-19 01:56:00,74.2,73.0,30.08,NW,318,0.0,-999.0,97,-99.99,,,0.00,weatherlink.com 1.10,2013-07-19 05:56:00,
2013-07-19 02:11:00,74.4,74.0,30.08,NW,326,0.0,-999.0,97,-99.99,,,0.00,weatherlink.com 1.10,2013-07-19 06:11:00,
2013-07-19 02:26:00,74.4,74.0,30.08,NW,314,0.0,-999.0,97,-99.99,,,0.00,weatherlink.com 1.10,2013-07-19 06:26:00,
2013-07-19 02:41:00,74.3,73.0,30.09,NW,317,2.0,-999.0,97,-99.99,,,0.00,weatherlink.com 1.10,2013-07-19 06:41:00,
2013-07-19 02:56:00,74.2,73.0,30.08,NW,311,0.0,-999.0,97,-99.99,,,0.00,weatherlink.com 1.10,2013-07-19 06:56:00,
2013-07-19 03:11:00,74.0,73.0,30.08,NW,321,1.0,-999.0,97,-99.99,,,0.00,weatherlink.com 1.10,2013-07-19 07:11:00,
2013-07-19 03:26:00,74.0,73.0,30.07,NNW,340,0.0,-999.0,97,-99.99,,,0.00,weatherlink.com 1.10,2013-07-19 07:26:00,
2013-07-19 03:41:00,74.0,73.0,30.07,NW,321,1.0,-999.0,97,-99.99,,,0.00,weatherlink.com 1.10,2013-07-19 07:41:00,
2013-07-19 03:56:00,74.0,73.0,30.07,NW,322,0.0,-999.0,97,-99.99,,,0.00,weatherlink.com 1.10,2013-07-19 07:56:00,
2013-07-19 04:11:00,74.3,73.0,30.07,WNW,296,0.0,-999.0,97,-99.99,,,0.00,weatherlink.com 1.10,2013-07-19 08:11:00,
2013-07-19 04:26:00,74.2,73.0,30.07,NW,326,0.0,-999.0,97,-99.99,,,0.00,weatherlink.com 1.10,2013-07-19 08:26:00,
2013-07-19 04:41:00,74.2,73.0,30.07,NW,326,0.0,-999.0,97,-99.99,,,0.00,weatherlink.com 1.10,2013-07-19 08:41:00,
2013-07-19 04:56:00,74.0,73.0,30.07,NW,323,1.0,-999.0,97,-99.99,,,0.00,weatherlink.com 1.10,2013-07-19 08:56:00,
2013-07-19 05:11:00,74.0,73.0,30.07,NW,311,0.0,-999.0,97,-99.99,,,0.00,weatherlink.com 1.10,2013-07-19 09:11:00,
2013-07-19 05:26:00,74.0,73.0,30.07,NW,311,0.0,-999.0,97,-99.99,,,0.00,weatherlink.com 1.10,2013-07-19 09:26:00,
2013-07-19 05:41:00,74.0,73.0,30.07,NW,311,0.0,-999.0,97,-99.99,,,0.00,weatherlink.com 1.10,2013-07-19 09:41:00,
2013-07-19 05:56:00,74.0,73.0,30.07,NW,311,0.0,-999.0,97,-99.99,,,0.00,weatherlink.com 1.10,2013-07-19 09:56:00,
2013-07-19 06:11:00,74.0,73.0,30.07,NNE,14,0.0,-999.0,97,-99.99,,,0.00,weatherlink.com 1.10,2013-07-19 10:11:00,
2013-07-19 06:26:00,74.2,73.0,30.08,ENE,61,1.0,-999.0,97,-99.99,,,0.00,weatherlink.com 1.10,2013-07-19 10:26:00,
2013-07-19 06:41:00,74.2,73.0,30.08,NNE,22,0.0,-999.0,97,-99.99,,,0.00,weatherlink.com 1.10,2013-07-19 10:41:00,
2013-07-19 06:56:00,74.3,73.0,30.08,NNE,29,0.0,-999.0,97,-99.99,,,0.00,weatherlink.com 1.10,2013-07-19 10:56:00,
2013-07-19 07:11:00,74.5,74.0,30.09,NNE,30,1.0,-999.0,97,-99.99,,,0.00,weatherlink.com 1.10,2013-07-19 11:11:00,
2013-07-19 07:26:00,74.8,74.0,30.09,NNE,30,0.0,-999.0,97,-99.99,,,0.00,weatherlink.com 1.10,2013-07-19 11:26:00,
2013-07-19 07:41:00,75.2,74.0,30.09,NNE,29,0.0,-999.0,97,-99.99,,,0.00,weatherlink.com 1.10,2013-07-19 11:41:00,
2013-07-19 07:56:00,75.7,75.0,30.09,NNE,29,0.0,-999.0,97,-99.99,,,0.00,weatherlink.com 1.10,2013-07-19 11:56:00,
2013-07-19 08:11:00,77.6,77.0,30.10,SE,128,4.0,-999.0,97,-99.99,,,0.00,weatherlink.com 1.10,2013-07-19 12:11:00,
2013-07-19 08:26:00,80.1,79.0,30.10,SE,136,0.0,-999.0,96,-99.99,,,0.00,weatherlink.com 1.10,2013-07-19 12:26:00,
2013-07-19 08:41:00,81.7,79.0,30.10,SSE,152,0.0,-999.0,92,-99.99,,,0.00,weatherlink.com 1.10,2013-07-19 12:41:00,
2013-07-19 08:56:00,82.0,79.0,30.10,SSE,156,2.0,-999.0,89,-99.99,,,0.00,weatherlink.com 1.10,2013-07-19 12:56:00,
2013-07-19 09:27:00,83.9,79.0,30.10,SSW,194,3.0,-999.0,84,-99.99,,,0.00,weatherlink.com 1.10,2013-07-19 13:27:00,
2013-07-19 09:42:00,84.6,79.0,30.10,SSE,147,4.0,-999.0,82,-99.99,,,0.00,weatherlink.com 1.10,2013-07-19 13:42:00,
2013-07-19 09:57:00,85.9,80.0,30.11,SSE,166,4.0,-999.0,81,-99.99,,,0.00,weatherlink.com 1.10,2013-07-19 13:57:00,
2013-07-19 10:12:00,85.3,78.0,30.11,SSE,150,1.0,-999.0,79,-99.99,,,0.00,weatherlink.com 1.10,2013-07-19 14:12:00,
2013-07-19 10:27:00,84.8,77.0,30.11,SSE,161,4.0,-999.0,77,-99.99,,,0.00,weatherlink.com 1.10,2013-07-19 14:27:00,
2013-07-19 10:42:00,84.6,78.0,30.11,East,81,3.0,-999.0,80,-99.99,,,0.00,weatherlink.com 1.10,2013-07-19 14:42:00,
2013-07-19 10:57:00,84.6,78.0,30.12,SSE,152,0.0,-999.0,80,-99.99,,,0.00,weatherlink.com 1.10,2013-07-19 14:57:00,
2013-07-19 11:12:00,84.5,78.0,30.12,ESE,123,4.0,-999.0,80,-99.99,,,0.00,weatherlink.com 1.10,2013-07-19 15:12:00,
2013-07-19 11:27:00,84.7,78.0,30.12,ESE,117,5.0,-999.0,80,-99.99,,,0.00,weatherlink.com 1.10,2013-07-19 15:27:00,
2013-07-19 11:42:00,84.8,78.0,30.12,SSE,156,4.0,-999.0,80,-99.99,,,0.00,weatherlink.com 1.10,2013-07-19 15:42:00,
2013-07-19 11:57:00,85.0,78.0,30.11,ESE,121,2.0,-999.0,80,-99.99,,,0.00,weatherlink.com 1.10,2013-07-19 15:57:00,
2013-07-19 12:12:00,85.3,78.0,30.11,East,84,3.0,-999.0,79,-99.99,,,0.00,weatherlink.com 1.10,2013-07-19 16:12:00,
2013-07-19 12:27:00,85.6,78.0,30.11,SSW,204,7.0,-999.0,79,-99.99,,,0.00,weatherlink.com 1.10,2013-07-19 16:27:00,
2013-07-19 12:42:00,86.0,78.0,30.10,SE,136,2.0,-999.0,77,-99.99,,,0.00,weatherlink.com 1.10,2013-07-19 16:42:00,
2013-07-19 12:57:00,87.9,77.0,30.10,SE,140,7.0,-999.0,71,-99.99,,,0.00,weatherlink.com 1.10,2013-07-19 16:57:00,
2013-07-19 13:12:00,87.7,78.0,30.09,SSW,196,3.0,-999.0,73,-99.99,,,0.00,weatherlink.com 1.10,2013-07-19 17:12:00,
2013-07-19 13:27:00,87.5,78.0,30.09,ENE,74,6.0,-999.0,74,-99.99,,,0.00,weatherlink.com 1.10,2013-07-19 17:27:00,
2013-07-19 13:42:00,87.5,78.0,30.09,SSE,150,4.0,-999.0,73,-99.99,,,0.00,weatherlink.com 1.10,2013-07-19 17:42:00,
2013-07-19 13:57:00,87.7,78.0,30.08,East,93,8.0,-999.0,72,-99.99,,,0.00,weatherlink.com 1.10,2013-07-19 17:57:00,
2013-07-19 14:12:00,88.3,78.0,30.08,ESE,111,4.0,-999.0,72,-99.99,,,0.00,weatherlink.com 1.10,2013-07-19 18:12:00,
2013-07-19 14:27:00,88.9,77.0,30.07,ENE,76,3.0,-999.0,67,-99.99,,,0.00,weatherlink.com 1.10,2013-07-19 18:27:00,
2013-07-19 14:42:00,89.2,77.0,30.07,SSE,149,7.0,-999.0,68,-99.99,,,0.00,weatherlink.com 1.10,2013-07-19 18:42:00,
2013-07-19 14:57:00,88.1,77.0,30.07,SSE,166,7.0,-999.0,70,-99.99,,,0.00,weatherlink.com 1.10,2013-07-19 18:57:00,
2013-07-19 15:12:00,89.0,78.0,30.06,SSW,209,2.0,-999.0,69,-99.99,,,0.00,weatherlink.com 1.10,2013-07-19 19:12:00,
2013-07-19 15:27:00,89.2,78.0,30.06,SSE,165,5.0,-999.0,70,-99.99,,,0.00,weatherlink.com 1.10,2013-07-19 19:27:00,
2013-07-19 15:42:00,87.6,78.0,30.06,ESE,103,2.0,-999.0,72,-99.99,,,0.00,weatherlink.com 1.10,2013-07-19 19:42:00,
2013-07-19 15:57:00,86.4,77.0,30.06,ESE,103,2.0,-999.0,74,-99.99,,,0.00,weatherlink.com 1.10,2013-07-19 19:57:00,
2013-07-19 16:12:00,86.6,78.0,30.05,ESE,112,6.0,-999.0,75,-99.99,,,0.00,weatherlink.com 1.10,2013-07-19 20:12:00,
2013-07-19 16:27:00,86.1,78.0,30.05,ESE,121,7.0,-999.0,76,-99.99,,,0.00,weatherlink.com 1.10,2013-07-19 20:27:00,
2013-07-19 16:42:00,85.5,78.0,30.05,SE,141,7.0,-999.0,77,-99.99,,,0.00,weatherlink.com 1.10,2013-07-19 20:42:00,
2013-07-19 16:57:00,85.0,77.0,30.06,SSE,149,6.0,-999.0,78,-99.99,,,0.00,weatherlink.com 1.10,2013-07-19 20:57:00,
2013-07-19 17:12:00,84.9,77.0,30.05,SSE,160,2.0,-999.0,78,-99.99,,,0.00,weatherlink.com 1.10,2013-07-19 21:12:00,
2013-07-19 17:27:00,84.9,77.0,30.05,SSE,156,6.0,-999.0,78,-99.99,,,0.00,weatherlink.com 1.10,2013-07-19 21:27:00,
2013-07-19 17:42:00,85.2,78.0,30.05,SE,142,4.0,-999.0,78,-99.99,,,0.00,weatherlink.com 1.10,2013-07-19 21:42:00,
2013-07-19 17:57:00,85.8,78.0,30.04,ESE,122,4.0,-999.0,77,-99.99,,,0.00,weatherlink.com 1.10,2013-07-19 21:57:00,
2013-07-19 18:12:00,85.0,78.0,30.03,ESE,109,2.0,-999.0,79,-99.99,,,0.00,weatherlink.com 1.10,2013-07-19 22:12:00,
2013-07-19 18:27:00,84.5,77.0,30.04,ESE,121,12.0,-999.0,79,-99.99,,,0.00,weatherlink.com 1.10,2013-07-19 22:27:00,
2013-07-19 18:42:00,84.1,77.0,30.04,SE,127,4.0,-999.0,80,-99.99,,,0.00,weatherlink.com 1.10,2013-07-19 22:42:00,
2013-07-19 18:57:00,84.0,77.0,30.05,ESE,111,7.0,-999.0,80,-99.99,,,0.00,weatherlink.com 1.10,2013-07-19 22:57:00,
2013-07-19 19:12:00,83.9,77.0,30.05,ESE,121,6.0,-999.0,80,-99.99,,,0.00,weatherlink.com 1.10,2013-07-19 23:12:00,
2013-07-19 19:27:00,83.7,77.0,30.04,SSE,156,4.0,-999.0,81,-99.99,,,0.00,weatherlink.com 1.10,2013-07-19 23:27:00,
2013-07-19 19:42:00,83.2,78.0,30.06,SSE,155,0.0,-999.0,83,-99.99,,,0.00,weatherlink.com 1.10,2013-07-19 23:42:00,
2013-07-19 19:57:00,82.9,78.0,30.05,ESE,117,1.0,-999.0,84,-99.99,,,0.00,weatherlink.com 1.10,2013-07-19 23:57:00,
2013-07-19 20:12:00,82.5,77.0,30.05,SSE,161,0.0,-999.0,84,-99.99,,,0.00,weatherlink.com 1.10,2013-07-20 00:12:00,
2013-07-19 20:27:00,82.2,77.0,30.05,SE,130,1.0,-999.0,85,-99.99,,,0.00,weatherlink.com 1.10,2013-07-20 00:27:00,
2013-07-19 20:42:00,82.0,78.0,30.06,ESE,114,0.0,-999.0,86,-99.99,,,0.00,weatherlink.com 1.10,2013-07-20 00:42:00,
2013-07-19 20:57:00,81.7,77.0,30.07,SSE,156,0.0,-999.0,86,-99.99,,,0.00,weatherlink.com 1.10,2013-07-20 00:57:00,
2013-07-19 21:12:00,81.5,77.0,30.08,SSE,147,0.0,-999.0,87,-99.99,,,0.00,weatherlink.com 1.10,2013-07-20 01:12:00,
2013-07-19 21:27:00,81.4,77.0,30.08,ENE,71,3.0,-999.0,87,-99.99,,,0.00,weatherlink.com 1.10,2013-07-20 01:27:00,
2013-07-19 21:42:00,81.5,77.0,30.09,SE,137,0.0,-999.0,87,-99.99,,,0.00,weatherlink.com 1.10,2013-07-20 01:42:00,
2013-07-19 21:57:00,81.6,77.0,30.09,SSE,153,0.0,-999.0,87,-99.99,,,0.00,weatherlink.com 1.10,2013-07-20 01:57:00,
2013-07-19 22:12:00,81.7,78.0,30.10,SSE,150,2.0,-999.0,87,-99.99,,,0.00,weatherlink.com 1.10,2013-07-20 02:12:00,
2013-07-19 22:27:00,81.7,78.0,30.11,SSE,152,0.0,-999.0,87,-99.99,,,0.00,weatherlink.com 1.10,2013-07-20 02:27:00,
2013-07-19 22:42:00,81.7,78.0,30.11,East,90,4.0,-999.0,87,-99.99,,,0.00,weatherlink.com 1.10,2013-07-20 02:42:00,
2013-07-19 22:57:00,81.5,78.0,30.11,SSE,148,0.0,-999.0,88,-99.99,,,0.00,weatherlink.com 1.10,2013-07-20 02:57:00,
2013-07-19 23:12:00,81.4,78.0,30.11,SSE,150,0.0,-999.0,88,-99.99,,,0.00,weatherlink.com 1.10,2013-07-20 03:12:00,
2013-07-19 23:27:00,81.3,78.0,30.11,SSE,148,1.0,-999.0,88,-99.99,,,0.00,weatherlink.com 1.10,2013-07-20 03:27:00,
2013-07-19 23:42:00,81.3,78.0,30.11,SE,138,0.0,-999.0,89,-99.99,,,0.00,weatherlink.com 1.10,2013-07-20 03:42:00,
2013-07-19 23:57:00,81.3,78.0,30.11,SSE,159,0.0,-999.0,89,-99.99,,,0.00,weatherlink.com 1.10,2013-07-20 03:57:00,